Theta_e
287 287 286 286 286 285 284 284 283 283 283 283 283 283 283 283 282 281 279 278 278 278 277 277 277 277 277 277 277 277 277 277 277 277 277 277 277 277 277 277 277 277 277 277 278 278 278 278 278 278 278 278 278 278 278 279 279 279 279 279 279 279 280 280 280 280 281 281 282 282 282 282 282 282 283 283 284 284 285 286 287 288 290 292 293
287 286 286 285 285 284 283 283 283 282 282 282 282 282 282 282 281 280 278 278 277 277 277 277 276 276 276 276 276 276 276 276 276 276 276 276 276 276 276 275 276 276 276 276 276 277 277 277 277 277 277 277 277 277 277 278 278 278 278 278 278 278 278 279 279 279 280 281 281 281 281 281 281 281 281 282 282 283 284 285 286 288 290 292 294
286 286 285 284 284 283 283 282 282 282 281 282 282 282 281 280 279 278 278 277 277 276 276 276 276 275 275 275 275 275 275 275 275 275 274 274 274 274 274 274 274 274 274 274 274 275 275 275 275 275 275 275 275 275 276 276 276 276 276 276 277 277 277 277 278 278 279 280 280 280 280 280 280 280 280 280 281 281 282 283 283 285 286 287 290
286 285 284 284 283 283 282 281 281 281 281 281 282 281 280 279 278 277 277 277 276 276 275 275 275 275 275 274 274 274 274 274 273 273 273 273 273 272 272 272 272 272 273 273 273 273 273 273 273 273 273 273 273 274 274 274 274 274 275 275 276 276 276 276 277 278 279 279 279 279 279 279 279 279 279 279 280 281 283 283 284 285 286 287 290
285 284 284 283 282 282 281 281 281 281 281 281 281 280 279 278 277 277 276 276 276 275 275 274 274 274 273 273 273 273 273 272 272 272 272 272 271 271 271 271 271 271 271 272 272 272 272 272 272 272 272 272 272 272 272 272 273 273 274 274 274 275 275 275 276 277 278 278 278 278 278 278 278 278 278 279 281 282 283 284 285 286 288 289 291
285 284 283 283 282 281 281 280 280 280 281 280 280 279 278 277 276 276 276 275 275 275 274 274 273 273 272 272 272 272 271 271 271 271 271 271 271 271 271 271 271 271 271 271 271 271 271 271 272 272 272 271 271 271 272 272 272 272 273 273 273 274 274 275 275 276 277 277 277 277 277 278 278 278 278 279 281 281 283 284 286 288 290 291 292
284 283 282 282 281 280 280 280 280 280 280 279 278 278 277 276 276 276 276 275 275 275 274 273 273 272 271 271 271 271 271 271 270 270 270 270 270 270 271 271 271 271 271 271 271 272 272 272 271 271 271 271 271 271 272 272 272 272 272 273 273 273 274 274 275 275 276 276 277 277 277 277 278 278 279 279 280 281 282 283 285 287 290 292 294
283 282 282 281 281 280 280 280 280 280 279 278 278 277 276 276 276 275 276 276 276 275 274 273 272 271 271 271 271 270 270 270 270 270 270 270 270 271 271 271 271 272 272 272 272 272 272 272 272 272 272 272 271 272 272 272 272 272 272 273 273 274 274 274 275 275 276 276 277 277 277 277 277 278 279 279 281 282 283 284 285 286 289 292 294
282 282 281 281 280 280 280 280 279 279 278 277 277 276 276 276 276 276 276 276 275 275 274 272 271 270 271 270 270 270 270 270 270 270 270 271 271 271 272 272 272 272 272 272 272 272 272 272 272 272 272 273 273 273 273 273 273 273 273 274 274 274 275 275 275 276 276 276 277 277 277 277 278 278 279 280 281 282 284 286 287 289 292 294 295
282 281 281 281 280 280 279 279 278 278 278 277 276 276 276 276 276 276 276 275 275 275 274 272 270 270 270 270 270 270 270 270 270 271 271 272 272 272 273 273 273 273 273 273 273 273 273 273 273 273 273 274 274 274 274 275 275 275 275 275 275 275 275 276 276 276 276 277 277 277 277 278 278 278 279 280 280 282 284 285 287 289 292 294 295
282 281 281 280 280 279 279 278 278 277 277 276 276 275 276 276 275 275 275 275 275 275 273 271 270 269 269 270 270 270 270 270 270 271 272 272 273 273 273 273 273 273 273 273 273 273 273 274 273 274 274 274 274 274 274 275 275 275 276 276 276 276 277 277 277 277 277 277 278 278 278 278 279 279 279 280 281 282 283 285 286 289 291 294 295
281 281 280 280 279 279 278 278 277 276 276 275 275 275 276 275 275 275 275 275 274 273 271 269 269 269 269 269 270 270 270 270 270 271 272 273 273 274 274 274 274 274 274 274 274 273 273 273 273 273 273 273 273 274 274 274 275 275 275 276 276 277 277 278 278 278 278 279 279 279 279 279 280 280 280 280 281 281 283 285 287 288 291 293 294
281 280 280 279 278 278 277 277 276 275 275 275 275 275 275 275 274 274 274 274 273 271 269 269 269 269 269 269 269 269 269 270 270 271 272 273 274 274 274 274 274 274 274 273 273 273 273 273 273 273 273 273 273 273 274 274 274 275 275 276 276 277 277 278 278 278 279 279 279 280 280 280 280 280 280 280 281 281 282 283 285 286 289 291 293
280 280 279 278 278 277 277 276 275 275 274 275 275 275 274 274 274 273 273 273 271 269 269 268 268 268 269 269 268 269 269 270 270 271 272 273 274 274 274 274 274 273 273 273 273 273 273 273 273 273 274 273 273 273 273 273 274 274 274 275 275 276 276 277 278 278 278 279 279 279 279 280 280 280 280 280 280 281 281 282 283 285 287 289 291
279 279 278 277 277 276 276 275 275 274 274 274 274 274 274 273 273 273 272 271 269 269 269 268 268 268 268 268 268 268 270 270 270 271 272 273 274 274 274 273 273 273 273 273 273 273 274 274 274 274 274 274 274 274 274 274 274 274 274 275 275 275 276 276 277 278 278 278 279 279 279 279 279 279 279 280 280 280 281 282 283 284 286 287 289
279 278 277 276 276 276 275 275 274 273 273 273 273 273 273 273 272 272 271 269 268 268 268 268 268 268 268 268 267 268 269 270 270 271 272 273 274 274 273 273 273 273 273 274 274 274 274 274 274 274 274 274 274 274 275 275 275 275 275 275 276 276 276 276 277 277 278 278 278 279 279 279 280 280 280 280 280 280 281 282 283 284 286 287 289
278 277 276 276 275 274 275 274 273 273 273 273 273 272 272 272 271 270 269 268 268 268 268 268 268 268 268 268 267 267 268 269 270 271 272 273 274 274 273 274 274 274 274 274 274 274 274 274 275 275 275 275 275 275 276 275 275 276 276 276 276 276 276 276 276 277 277 278 279 279 280 280 280 280 280 281 281 281 282 283 284 285 287 288 289
277 276 276 275 274 274 274 274 274 273 273 273 272 272 271 271 270 269 268 268 268 268 267 267 268 268 268 268 267 267 268 269 270 271 272 273 274 274 274 274 274 274 274 274 275 275 275 275 275 275 275 275 275 276 276 276 276 276 276 276 277 277 277 277 277 277 278 278 279 279 280 281 281 281 281 282 282 282 283 283 284 285 287 288 289
277 276 275 274 274 274 274 274 274 273 273 273 272 272 271 270 270 269 268 268 268 267 267 267 268 269 268 268 268 268 269 269 270 271 272 273 273 274 274 274 274 274 274 275 275 275 275 274 274 274 275 275 275 276 276 276 276 276 277 277 277 277 277 277 278 278 278 278 278 279 280 281 281 281 281 282 282 283 283 284 284 286 287 288 290
276 275 274 274 273 273 273 273 273 273 273 272 272 271 271 270 269 268 268 267 267 267 267 267 268 268 268 268 268 269 269 270 270 271 272 273 273 274 274 274 274 274 275 275 275 274 274 273 273 273 274 274 275 275 275 276 276 276 277 277 277 277 277 277 278 278 278 278 279 280 280 281 281 281 282 282 283 283 284 284 285 286 287 289 290
275 274 274 273 272 273 273 273 273 273 273 272 271 270 270 270 269 268 267 267 267 266 267 267 267 268 268 269 269 269 270 270 270 271 272 272 273 274 274 274 274 274 275 274 274 274 273 272 272 273 273 274 274 275 275 276 276 277 277 277 277 278 278 278 278 278 278 279 279 280 280 281 281 282 282 283 283 284 284 285 286 287 288 289 290
274 273 273 272 272 273 273 273 273 272 272 271 271 270 269 269 268 268 267 267 266 266 266 267 268 268 269 269 269 270 270 270 270 270 271 272 273 274 274 274 274 274 274 274 273 273 272 272 272 272 273 274 274 275 275 275 276 276 276 277 278 279 279 279 279 279 279 279 279 280 281 281 282 283 283 284 284 285 285 286 287 288 289 289 290
273 272 272 272 272 273 273 273 272 272 271 271 270 269 268 268 268 267 267 266 266 266 267 268 268 268 269 269 270 270 270 270 270 270 271 272 273 273 274 274 274 274 273 273 272 272 271 271 271 272 273 274 274 274 274 274 274 275 275 276 278 278 279 280 280 280 280 280 280 281 281 282 283 283 284 285 285 286 287 288 289 289 290 290 291
272 272 272 272 272 272 272 272 271 271 271 270 270 268 268 267 267 267 267 266 266 267 268 268 268 269 269 270 269 269 269 269 269 270 271 272 272 273 273 273 273 273 272 272 271 271 271 271 272 273 273 273 273 273 273 273 273 274 275 276 276 277 278 280 280 280 280 281 281 281 282 282 283 284 285 285 286 286 287 288 289 290 290 290 290
272 271 271 271 271 270 270 270 270 270 270 270 269 268 267 267 266 266 266 266 267 268 268 268 269 269 269 269 269 269 269 269 270 270 271 271 272 272 272 272 272 272 272 271 271 271 271 271 272 272 272 272 272 272 271 271 272 273 273 274 274 274 276 277 279 279 280 281 281 281 282 282 283 284 285 285 286 287 287 288 288 289 290 290 290
270 270 269 268 268 268 268 267 268 269 269 269 268 268 267 267 266 266 266 267 268 268 268 269 269 269 269 269 269 269 269 269 270 270 270 271 271 272 272 272 271 271 270 270 270 271 270 270 270 270 270 270 270 270 270 271 271 271 272 272 273 273 274 275 276 277 278 280 281 282 282 283 284 285 285 286 286 287 287 288 288 289 290 289 290
269 268 267 266 266 267 267 266 266 267 267 267 267 266 266 266 266 266 267 267 267 268 268 269 269 269 269 269 269 269 269 269 270 270 271 271 271 271 271 271 271 270 270 270 270 269 268 268 268 269 269 269 269 269 269 270 270 270 271 271 271 272 273 273 274 275 276 277 279 281 283 284 284 285 286 286 287 287 287 288 288 289 290 290 290
268 267 266 266 265 266 266 266 266 266 266 266 266 266 266 266 266 267 267 267 267 268 269 269 269 269 269 269 269 269 269 269 270 271 271 271 271 271 271 271 271 270 270 270 270 268 267 267 267 267 268 268 268 268 268 269 269 270 270 270 271 271 272 273 273 274 275 276 277 278 280 282 284 286 286 287 287 288 288 288 289 289 289 289 290
267 266 265 265 265 265 266 266 266 265 265 265 265 266 267 267 266 267 267 267 267 268 268 269 269 268 268 268 269 269 269 269 270 271 271 271 271 271 271 271 270 270 270 270 268 266 266 266 266 267 267 267 267 268 268 268 269 269 270 270 270 271 271 272 273 273 273 274 275 275 276 279 282 286 287 287 287 288 288 288 289 289 289 289 290
266 265 264 264 265 265 265 265 265 265 265 265 265 266 267 267 266 266 266 267 268 269 269 269 268 268 268 268 268 269 269 270 270 271 271 271 271 271 271 270 270 269 270 269 267 265 265 266 266 266 266 266 267 267 268 268 268 269 269 270 270 270 271 271 272 272 273 273 274 274 275 277 280 283 286 288 288 288 288 288 289 289 290 290 290
265 265 264 264 265 265 264 264 264 265 265 265 265 265 265 266 266 267 267 267 268 268 268 268 268 268 268 268 268 268 269 270 270 270 270 270 270 270 270 269 269 269 269 267 265 265 265 265 265 265 266 266 266 267 267 268 268 268 269 269 270 270 270 271 271 272 272 272 273 273 274 276 277 280 283 286 288 288 288 289 289 290 290 290 290
265 265 265 265 265 265 264 264 264 265 265 265 265 265 265 266 266 267 267 267 268 268 268 268 268 268 268 268 268 268 269 269 269 269 269 269 269 269 269 268 268 268 268 266 264 264 264 264 265 265 265 265 266 266 267 267 268 268 268 269 270 270 270 270 271 271 272 272 273 273 274 275 276 277 279 281 285 287 289 289 289 290 290 291 291
267 266 265 265 265 265 265 265 264 265 265 265 265 266 266 266 267 267 266 266 267 267 267 266 267 267 267 268 268 268 269 269 269 269 269 268 268 268 267 266 267 267 266 264 264 264 264 264 264 264 265 265 265 265 266 267 267 268 268 269 269 270 270 270 271 271 272 272 272 272 273 273 274 275 276 278 281 285 288 289 290 290 291 291 291
270 268 267 266 265 265 265 265 265 265 265 265 265 265 266 266 267 266 265 265 266 266 265 265 266 266 266 266 267 267 268 268 268 268 268 268 267 267 265 265 265 265 264 263 263 263 263 263 264 264 264 264 265 265 266 266 267 267 268 268 269 269 270 270 270 271 271 271 271 271 272 272 273 274 275 276 279 281 285 288 290 291 291 291 291
270 268 267 266 266 265 265 265 265 265 265 265 265 264 264 264 264 264 264 264 264 264 264 264 265 264 265 265 266 266 267 267 267 267 267 267 266 265 264 263 263 263 263 263 262 262 262 263 263 263 263 264 264 265 265 266 267 267 267 268 269 269 270 270 270 271 271 271 271 270 271 271 272 272 273 275 276 278 281 285 289 291 291 291 291
267 266 265 266 266 265 265 265 265 265 265 265 264 264 263 263 263 262 263 263 262 262 262 263 264 264 264 264 265 265 266 266 266 266 265 265 264 263 262 261 261 261 262 262 262 261 262 262 262 262 263 263 264 264 265 265 266 267 267 268 269 269 270 270 271 271 271 270 270 270 270 270 271 271 272 273 274 276 279 282 286 289 291 292 292
266 265 265 265 265 265 265 265 265 265 265 265 264 264 263 263 263 263 263 263 262 261 261 263 264 264 264 264 265 265 264 265 265 265 264 264 264 263 261 260 260 260 260 260 261 261 261 261 262 262 262 263 263 264 264 265 266 266 267 267 268 269 270 270 271 270 270 270 270 269 269 270 270 270 271 272 273 275 277 279 283 287 291 292 292
266 266 265 265 265 265 264 264 264 264 264 264 263 263 262 262 262 262 262 262 261 260 260 261 261 261 261 262 263 263 263 264 265 265 264 264 263 262 260 259 259 259 259 260 260 260 260 261 261 262 262 263 263 263 264 265 265 266 266 267 268 269 270 270 270 270 270 269 269 269 269 269 269 270 270 271 272 274 275 277 280 285 289 292 292
265 265 265 265 264 264 264 263 263 263 263 262 261 261 261 260 260 260 261 261 260 259 259 259 259 260 260 261 262 262 262 263 263 263 262 262 261 260 259 258 259 259 259 259 259 259 259 260 261 261 262 262 263 263 264 264 265 266 266 267 268 269 270 270 270 270 269 269 269 269 269 269 269 269 270 270 272 273 274 276 279 283 288 292 293
265 264 264 264 264 264 264 263 263 262 262 261 260 260 260 260 259 259 260 259 258 258 258 259 259 259 260 261 262 262 261 261 261 260 260 260 260 260 259 258 258 258 258 258 258 259 259 259 260 261 262 262 263 263 264 264 265 265 266 267 268 269 270 270 270 270 269 269 268 268 268 268 268 269 269 270 271 272 274 276 278 281 287 292 294
264 264 264 264 263 263 263 263 262 262 261 261 261 261 260 260 260 260 260 259 258 258 258 258 259 259 260 261 261 261 261 260 260 260 259 259 259 259 259 258 258 258 258 258 258 258 259 259 260 260 261 262 263 263 264 264 265 265 265 266 268 269 270 270 270 269 269 268 268 268 268 268 268 269 269 270 271 272 274 276 278 280 286 291 295
264 264 263 263 263 263 262 262 261 262 261 261 261 261 261 261 261 261 260 260 259 258 258 258 258 259 259 260 260 260 260 261 260 260 259 259 259 259 259 259 259 258 258 258 258 258 258 259 260 260 261 262 262 263 263 264 264 265 265 266 268 270 270 270 270 269 269 268 268 268 268 268 268 269 269 270 271 272 273 275 277 281 286 292 296
265 264 263 263 263 263 262 261 260 260 260 260 261 261 261 261 261 261 261 260 259 259 259 258 258 259 259 259 260 260 261 261 261 260 260 259 259 259 260 260 260 260 260 260 260 259 259 259 260 260 261 262 263 263 263 264 265 265 265 266 268 270 270 270 270 269 268 268 268 267 268 268 268 268 269 269 270 272 273 275 278 282 287 293 296
264 263 263 262 262 262 262 261 261 260 260 261 261 261 261 261 260 260 260 260 259 259 259 259 259 259 260 260 260 261 261 261 261 260 260 260 260 260 260 260 260 261 261 262 262 261 260 260 260 261 262 263 264 265 265 265 266 266 266 267 269 270 270 270 270 269 268 268 267 267 267 267 268 268 268 269 270 272 273 275 278 282 288 294 297
264 263 262 261 261 261 261 261 261 260 260 260 260 260 260 260 260 260 260 259 259 259 259 259 259 260 260 260 260 261 261 261 260 260 260 260 260 260 260 261 261 261 262 262 262 262 262 261 261 261 262 263 264 265 265 266 267 267 267 268 269 270 270 270 269 269 268 268 267 267 267 267 267 268 268 269 270 271 273 275 277 281 287 293 297
263 263 262 261 260 259 259 259 260 260 260 260 259 259 258 259 259 259 259 259 259 259 259 259 259 259 260 260 260 261 261 261 261 260 260 260 260 260 260 261 261 261 262 262 262 262 262 262 262 262 262 263 263 264 265 266 267 267 267 269 270 270 270 269 269 269 268 267 267 267 267 267 267 268 268 269 269 270 272 273 276 280 287 293 296
263 262 261 260 260 259 259 259 260 260 260 259 259 258 258 258 259 259 259 259 259 259 259 259 259 259 259 260 260 261 261 261 260 261 261 260 260 260 260 261 261 261 262 262 262 262 263 263 263 263 263 263 263 264 265 266 266 267 267 269 270 270 270 269 269 269 268 267 267 267 267 267 267 267 268 268 269 269 271 272 274 280 287 294 296
262 261 260 260 260 259 258 259 259 259 259 259 259 259 258 258 259 259 259 259 259 259 259 259 259 259 259 260 260 260 261 261 260 261 261 261 261 260 260 261 261 261 262 262 262 262 263 263 263 264 264 263 263 264 265 266 266 266 267 269 270 270 270 269 269 269 268 267 267 267 267 267 267 267 267 268 268 269 270 271 273 277 285 293 296
262 261 260 260 260 260 259 259 259 258 258 258 258 258 258 258 258 259 259 259 259 259 259 259 259 259 260 260 260 261 261 260 260 261 261 261 261 260 260 261 261 261 261 262 262 262 263 263 263 264 264 264 264 264 265 266 266 266 267 269 270 270 270 269 269 268 268 267 267 267 267 267 267 267 267 267 268 268 269 270 272 275 281 289 295
262 261 261 261 261 261 260 260 260 259 259 259 259 258 258 258 258 259 258 258 258 259 259 259 259 260 260 260 260 260 260 260 260 260 260 260 260 260 260 261 261 261 261 261 262 262 263 263 263 264 264 265 265 265 266 266 266 266 267 269 269 270 270 269 269 268 268 267 267 267 267 266 267 267 267 267 267 268 268 269 271 273 276 282 290
262 262 262 262 261 261 260 260 260 259 259 259 259 258 258 258 258 258 259 259 259 259 259 259 260 260 260 260 260 260 260 260 260 260 260 260 260 260 260 261 261 261 261 261 261 262 262 263 263 263 264 264 265 265 266 266 266 266 267 268 269 270 270 270 269 268 267 267 267 267 267 266 266 267 267 267 267 267 268 268 269 271 273 276 282
Wind_Speed
38 38 37 37 37 35 33 32 31 30 29 29 28 25 23 20 18 17 16 15 15 15 15 15 15 15 15 15 15 15 15 14 14 14 15 17 17 18 18 18 19 20 21 22 22 23 25 26 27 28 28 29 30 30 30 30 31 31 32 33 32 34 36 30 19 17 28 42 47 43 38 36 36 36 37 37 39 41 40 39 41 43 43 43 43
39 40 38 38 38 35 34 33 32 31 30 29 27 25 22 20 18 17 16 16 16 15 15 15 15 14 14 15 15 15 15 15 14 14 15 17 17 18 17 17 19 20 21 22 23 23 24 25 26 26 27 28 29 30 30 30 30 30 33 33 33 34 35 33 26 18 21 35 43 41 35 33 34 35 36 38 42 45 44 44 44 41 39 39 39
39 40 38 38 37 35 34 34 33 32 30 29 27 24 22 19 18 17 17 16 15 15 15 14 13 13 13 15 15 15 15 14 14 14 15 16 17 17 17 18 19 20 21 22 22 22 23 25 25 25 26 28 29 29 29 30 30 31 34 34 34 35 35 35 33 24 20 28 37 36 30 30 34 37 38 40 42 44 46 47 48 48 48 47 44
40 39 38 37 36 35 34 33 33 32 30 29 26 23 21 19 19 18 17 16 14 14 14 12 12 13 13 14 14 14 14 13 14 14 15 16 17 18 18 18 19 20 21 22 22 22 23 24 24 24 26 29 29 28 29 30 31 31 33 33 34 35 35 35 35 31 27 26 31 33 30 30 35 37 38 40 41 42 43 42 43 45 47 47 43
40 38 38 37 35 35 34 33 33 32 30 28 25 22 21 19 19 18 17 15 14 13 12 12 12 13 13 14 14 13 13 14 14 15 16 16 17 18 18 18 19 20 21 22 22 22 22 23 24 24 27 30 30 29 30 31 31 31 32 32 33 34 34 34 33 32 31 28 29 32 31 31 35 37 38 39 39 39 39 40 42 43 42 41 40
40 38 38 37 34 34 34 33 33 32 30 26 24 22 21 19 18 17 16 15 14 13 13 13 13 13 13 14 13 13 13 14 15 15 16 16 17 18 18 18 19 19 20 21 21 22 23 25 27 27 29 31 31 31 32 31 32 32 32 32 33 33 33 33 32 32 33 32 31 32 31 31 34 35 36 35 35 37 37 38 40 40 37 36 38
38 36 36 35 33 33 33 33 32 31 28 25 23 22 21 19 17 17 16 15 14 14 14 13 13 13 14 13 13 13 13 14 15 15 16 16 16 17 17 18 19 20 21 22 22 24 25 27 29 29 31 32 33 34 34 33 33 34 33 32 32 33 32 32 32 31 31 31 30 29 30 31 32 33 35 35 36 38 37 33 33 37 36 32 34
35 33 32 31 31 32 33 32 31 29 27 24 23 21 20 19 18 17 16 14 13 13 13 12 13 13 13 13 12 12 13 14 14 15 15 15 15 16 17 18 20 21 22 23 24 25 26 28 29 30 32 33 34 34 34 34 33 33 33 32 32 32 32 31 30 29 29 28 27 28 28 29 30 31 34 34 30 30 33 29 27 33 35 32 34
32 32 31 28 29 32 32 30 29 28 26 24 23 22 20 19 18 16 15 13 12 12 12 12 12 12 12 11 11 12 13 14 14 14 14 14 15 16 17 18 20 21 21 22 23 25 27 29 30 31 33 34 35 36 37 37 36 35 34 33 32 32 31 30 27 26 26 23 23 25 23 22 27 28 29 30 26 26 33 31 26 30 33 31 33
32 33 30 28 31 33 32 30 29 28 27 25 23 22 20 19 17 15 13 12 12 11 11 11 11 10 10 10 11 12 13 14 14 14 15 16 17 17 19 20 21 21 21 22 23 25 27 28 30 32 34 35 38 39 40 41 41 41 40 38 36 34 32 30 26 24 25 21 20 23 17 15 24 28 28 32 33 32 33 31 28 30 29 23 25
35 35 31 30 32 33 31 31 29 28 27 25 23 22 20 18 16 14 13 12 11 10 10 10 9 9 9 10 11 12 13 14 15 15 16 17 18 19 21 22 23 23 22 22 23 26 28 29 30 32 33 35 36 37 39 40 40 42 42 42 42 39 37 34 28 25 25 21 21 22 16 14 23 29 30 32 33 33 32 29 28 26 20 11 10
36 35 32 32 33 33 32 31 29 27 26 25 23 21 19 17 15 14 12 11 10 10 10 9 9 9 9 10 11 12 15 16 15 16 17 17 18 20 21 22 23 23 22 22 24 27 29 31 32 32 32 33 35 36 37 39 39 40 41 42 42 43 43 41 37 32 29 25 23 23 20 20 25 29 32 32 32 33 33 29 27 25 19 10 5
36 33 32 33 34 33 33 32 29 27 26 25 23 20 18 17 15 13 12 10 9 10 10 9 9 9 8 9 11 13 16 16 15 16 17 18 19 20 21 22 23 23 23 24 27 29 30 32 33 33 33 33 35 36 37 38 38 38 39 39 39 40 42 43 43 42 39 34 29 26 26 27 28 29 33 34 32 32 31 29 29 28 24 17 11
36 34 33 34 34 33 33 32 30 27 25 24 22 20 18 16 14 13 11 10 10 10 10 9 9 8 8 9 11 13 16 16 14 16 17 18 19 20 21 22 21 22 24 26 28 29 30 32 34 36 36 35 35 36 37 37 37 36 37 37 37 38 39 40 41 42 43 41 37 35 34 34 35 35 37 38 37 35 32 31 31 30 28 28 26
35 35 34 34 34 34 33 32 29 27 25 24 21 19 17 15 14 12 10 9 10 10 9 9 9 8 8 9 11 14 16 16 14 16 17 18 20 20 20 21 20 22 25 26 28 30 33 35 37 39 39 37 37 38 37 38 37 37 37 37 38 38 38 39 38 38 40 40 40 41 41 41 42 41 41 42 40 37 37 38 39 37 35 35 33
33 34 34 34 34 35 34 32 29 27 25 23 21 19 17 15 13 11 10 10 11 10 9 9 8 8 8 9 11 14 16 15 13 15 17 18 20 20 20 21 21 24 26 28 30 33 35 37 38 40 41 40 40 39 39 39 39 38 38 37 38 39 39 39 40 40 42 44 45 47 48 47 47 44 43 43 40 38 38 39 40 38 31 23 19
34 35 35 35 35 34 34 32 30 27 25 23 21 19 17 15 13 11 11 11 11 10 9 8 7 7 8 10 11 14 15 14 13 15 17 18 20 22 22 22 23 25 28 30 31 31 32 33 35 37 39 39 39 38 39 40 39 37 37 36 37 39 39 40 41 44 46 49 50 51 50 51 52 50 48 46 45 44 37 30 31 30 21 13 11
37 38 37 36 36 35 34 33 31 28 26 24 21 18 16 14 12 11 11 11 10 9 8 7 6 7 9 11 11 12 14 14 13 14 16 18 20 21 22 23 26 28 30 31 31 29 29 32 35 37 37 37 38 39 40 41 39 36 35 35 34 34 34 35 37 38 40 42 46 47 47 48 50 49 47 47 48 48 40 32 33 28 16 12 11
39 39 37 36 35 34 34 32 30 29 26 24 21 19 16 14 11 11 11 10 9 8 7 6 6 7 8 10 9 10 12 13 12 14 16 18 20 21 22 24 27 29 29 30 32 32 31 33 36 36 36 37 38 39 39 40 39 37 36 35 33 32 32 33 34 34 35 37 40 41 41 41 42 42 44 46 46 47 45 41 39 31 19 14 12
40 38 36 34 33 32 31 30 28 26 25 23 20 18 16 14 12 12 11 9 8 8 8 6 6 7 7 8 9 9 11 12 12 14 16 18 20 22 24 25 26 29 30 31 32 33 34 34 34 34 35 36 38 39 40 41 42 42 40 35 33 35 36 36 36 36 36 36 36 37 37 37 38 39 41 42 42 43 45 44 42 39 30 24 19
41 39 37 36 33 32 30 28 26 24 23 21 20 18 16 15 13 12 10 9 9 9 7 4 4 5 6 7 9 9 10 12 13 14 16 18 20 22 24 25 26 29 32 31 30 30 33 34 34 34 35 37 39 42 43 44 44 43 40 36 37 42 42 40 38 37 36 35 34 35 36 36 37 37 38 38 38 38 40 41 43 44 41 35 26
42 40 38 37 34 32 30 28 26 24 22 21 19 18 16 15 13 11 10 9 8 7 4 2 2 4 5 7 7 8 9 11 13 15 16 19 20 21 24 25 27 29 30 29 29 29 31 34 35 36 37 39 42 44 43 43 42 39 38 38 41 45 44 40 37 35 34 33 31 31 32 32 32 34 34 33 33 34 36 38 40 42 43 44 37
43 40 39 37 35 34 31 29 27 25 23 22 20 18 17 15 13 12 11 10 7 5 4 3 2 3 4 5 6 8 10 11 13 15 17 19 20 22 24 25 27 28 27 27 29 30 32 34 35 38 41 42 43 42 40 39 38 36 36 37 39 41 38 32 30 30 29 29 27 27 28 29 29 29 30 30 30 30 32 33 33 34 36 39 39
44 41 41 39 37 35 33 31 29 26 24 23 21 19 17 16 14 12 11 10 8 6 5 2 0 2 4 6 7 9 10 11 13 15 17 20 21 23 24 25 26 27 27 27 27 28 32 36 38 40 41 40 39 38 36 35 35 34 36 37 36 34 30 25 24 25 24 24 24 25 26 28 28 27 27 28 28 28 29 29 29 29 30 32 33
44 43 41 38 37 35 32 30 28 26 25 24 22 21 20 18 15 13 11 10 8 7 5 2 2 2 4 6 7 9 11 12 14 15 17 20 22 23 24 25 26 26 27 27 26 27 32 37 38 37 35 34 35 34 33 32 32 33 34 34 31 28 24 22 21 20 19 20 22 24 26 29 29 29 28 27 27 28 28 28 28 28 28 28 30
44 43 41 38 36 35 32 29 27 25 26 25 23 22 21 18 15 12 11 10 8 7 5 3 3 2 4 5 7 9 11 12 14 15 17 20 21 23 24 25 25 26 26 26 27 28 31 32 32 31 31 31 32 31 31 31 32 31 30 29 27 25 23 22 21 19 18 19 21 24 27 29 29 28 28 28 27 28 27 26 26 27 26 25 26
44 42 39 37 35 34 33 30 27 26 26 24 23 21 19 18 15 12 12 11 9 7 6 5 3 1 3 5 7 9 10 12 14 16 19 21 22 23 24 24 25 25 24 25 26 27 27 28 27 28 28 28 28 28 29 30 30 29 28 26 25 24 23 23 22 21 22 22 23 25 27 29 29 27 26 26 27 28 28 27 25 23 23 23 21
45 41 39 37 34 32 32 31 29 29 27 24 23 21 20 18 14 12 13 12 9 8 6 5 3 1 3 4 6 8 9 11 14 17 20 22 23 24 25 25 25 24 24 27 27 26 25 25 25 25 25 26 26 26 26 26 26 27 27 26 26 25 24 23 23 22 22 22 23 24 24 24 25 26 26 25 25 26 28 27 25 23 23 21 16
44 41 37 36 33 31 31 31 30 29 27 24 21 20 20 19 15 13 14 11 8 7 7 6 4 1 1 3 5 6 8 11 15 18 20 21 22 24 25 25 25 24 25 27 26 25 25 24 24 24 25 25 26 25 25 26 26 25 26 26 26 25 23 22 22 22 22 23 23 23 23 22 22 22 24 23 24 25 26 25 23 23 23 20 14
42 39 37 36 34 33 32 30 28 29 28 25 21 19 18 17 15 14 12 9 7 7 8 7 4 2 1 2 4 5 8 12 15 17 19 20 21 23 24 24 23 23 24 25 23 23 23 22 22 23 24 24 25 25 26 27 26 26 26 25 25 25 24 23 22 23 24 24 23 23 22 21 21 21 20 20 22 24 24 25 24 23 21 16 10
40 36 36 36 35 34 34 31 28 28 27 25 23 20 17 14 12 11 10 9 8 8 9 8 6 4 3 3 4 5 8 12 14 16 17 19 20 22 23 22 21 21 23 23 21 20 20 19 20 22 23 23 24 25 27 27 27 28 27 24 24 27 26 25 24 25 25 25 24 22 22 20 20 21 20 19 19 21 22 23 23 22 20 16 10
41 37 37 37 36 36 35 33 31 29 27 25 23 20 16 13 12 12 10 9 10 10 10 9 7 6 5 5 5 6 8 12 14 15 17 19 20 22 22 21 20 21 21 20 18 18 19 19 19 21 22 23 24 26 27 27 27 28 27 25 26 29 29 28 28 26 25 24 23 22 22 21 20 20 21 21 20 20 20 20 20 19 18 17 13
47 43 41 39 37 36 35 34 32 30 29 27 24 20 17 14 15 14 12 10 11 10 9 8 8 7 6 7 8 9 10 13 14 15 17 19 21 23 22 20 19 20 20 18 17 18 19 19 20 21 22 23 25 27 27 27 27 28 27 26 27 31 33 33 30 26 23 23 24 24 24 23 22 21 21 21 21 19 17 18 19 17 14 12 11
53 50 47 44 40 37 35 34 32 30 29 27 24 22 19 17 17 16 13 11 11 9 7 7 7 7 7 8 10 11 11 13 14 15 17 19 21 22 23 22 23 23 23 21 18 18 19 20 20 22 23 24 26 27 27 27 28 28 29 29 28 31 35 34 29 24 23 23 24 25 25 25 23 21 21 20 20 18 17 16 16 14 10 8 8
51 47 45 44 42 38 35 34 32 31 29 27 25 23 21 19 19 17 15 13 13 10 7 7 7 7 7 8 10 10 11 13 14 15 17 18 19 22 24 25 25 25 24 22 20 19 20 20 20 22 24 25 26 27 27 27 28 30 32 30 28 30 34 31 26 25 26 25 25 25 25 25 24 22 21 21 19 16 14 14 14 13 11 9 8
45 42 40 39 39 37 35 34 33 31 29 27 24 23 21 19 18 17 15 15 14 11 8 7 7 7 8 8 8 8 10 13 13 13 15 16 19 23 24 20 19 20 21 22 22 21 21 21 22 24 25 25 27 28 28 28 30 33 35 32 29 30 31 28 26 28 29 27 26 26 25 24 24 23 22 21 20 18 16 16 17 16 14 13 11
46 44 40 39 38 37 34 33 31 30 29 27 24 22 20 17 16 16 15 13 12 10 8 6 7 7 7 7 8 8 10 12 12 12 15 17 21 25 23 18 17 18 19 21 22 22 23 24 25 26 28 29 29 30 31 31 31 34 36 33 30 31 32 30 29 30 29 28 28 27 25 24 23 24 22 20 19 19 18 17 17 17 18 18 15
47 45 43 41 40 38 35 32 29 29 28 26 24 22 20 18 16 15 14 13 11 10 8 7 7 7 7 8 9 10 11 13 14 16 18 20 22 24 22 19 18 18 19 22 24 23 24 27 29 30 33 37 35 33 33 34 33 35 39 36 31 32 35 33 30 29 29 28 28 28 26 25 24 24 23 21 20 19 18 18 17 15 16 16 13
39 38 39 40 39 37 36 33 30 29 28 25 23 22 21 19 17 16 15 14 12 9 8 8 7 6 5 7 10 11 13 15 16 18 19 21 21 21 21 20 20 20 22 25 27 27 26 29 32 32 35 39 40 36 36 36 34 37 40 36 30 32 35 31 28 30 30 28 28 29 28 26 25 25 24 22 21 20 20 19 18 16 14 11 12
39 37 38 38 36 35 35 33 31 30 27 25 24 23 22 21 19 18 17 16 13 11 10 9 7 5 5 7 9 10 10 11 13 14 15 18 19 20 20 20 20 22 24 25 27 28 28 30 32 33 34 40 44 44 44 43 41 42 41 34 29 34 35 30 29 32 31 29 30 31 30 28 27 26 24 23 22 22 22 20 20 20 19 16 16
43 39 38 37 36 34 34 33 31 29 28 26 25 24 22 22 21 19 18 17 15 12 11 10 8 7 6 5 5 5 5 7 10 11 12 15 17 18 20 20 20 22 24 25 28 30 30 31 33 33 34 40 45 48 50 51 50 50 45 35 31 35 36 33 32 34 33 32 32 31 31 31 29 26 24 24 24 24 23 22 21 22 23 22 20
45 41 39 37 37 37 35 32 30 29 27 26 25 23 22 22 21 20 19 18 16 14 13 10 8 8 7 4 2 3 4 7 9 11 12 14 15 17 19 21 21 22 24 26 28 29 29 31 34 34 34 38 42 46 50 52 53 53 48 39 33 35 37 36 37 37 34 33 33 33 32 32 30 26 26 26 25 24 22 22 22 22 21 20 20
46 44 41 39 38 38 35 31 29 28 26 25 24 23 22 22 21 19 19 17 16 14 13 11 9 8 8 7 5 5 6 9 10 11 12 14 15 17 19 21 22 24 26 27 28 29 29 31 34 34 35 37 39 42 47 50 51 54 50 40 33 36 39 40 40 41 38 36 36 36 34 33 30 27 25 25 23 22 21 21 20 20 19 17 17
44 42 40 38 36 35 34 32 30 28 26 25 24 23 22 21 20 19 18 17 15 14 13 11 9 8 8 7 7 7 8 9 10 11 12 13 15 17 19 21 23 25 27 28 29 30 31 32 34 35 37 39 39 41 44 47 49 51 47 38 33 37 41 42 43 44 42 39 38 36 34 33 30 27 25 23 22 21 20 19 18 19 18 14 12
45 42 40 37 35 33 32 31 29 28 27 26 24 23 22 21 20 19 18 16 15 13 12 10 9 8 8 8 7 8 9 9 10 11 12 14 15 16 18 20 23 25 27 28 29 31 32 34 35 36 38 39 41 43 44 46 47 46 41 34 33 37 41 44 46 45 43 41 40 37 35 33 30 28 27 26 23 21 20 19 19 19 16 11 9
45 43 41 38 35 33 31 30 29 28 27 27 25 23 21 20 20 19 17 16 15 13 11 10 9 8 8 7 8 8 9 9 10 11 12 14 15 16 18 20 21 23 25 27 28 30 32 34 35 37 38 39 41 42 43 45 46 43 37 34 34 37 42 48 49 46 44 44 41 37 36 33 29 29 30 28 25 23 21 20 21 21 18 12 9
43 42 40 37 35 33 31 29 29 28 27 27 25 23 21 20 19 18 17 15 14 12 11 10 9 8 7 7 8 8 8 9 10 11 12 14 15 16 18 20 21 22 25 26 27 29 32 34 35 37 38 39 40 42 43 45 45 41 37 36 37 40 46 52 51 47 46 46 41 37 36 34 31 32 32 29 25 24 23 21 22 23 20 14 10
42 41 38 35 34 32 30 29 29 27 26 26 25 23 21 20 19 18 16 14 13 12 10 9 8 7 7 7 7 7 8 8 10 11 12 14 15 16 18 19 21 22 24 25 27 29 31 33 35 36 37 38 40 41 43 45 45 40 38 39 40 42 48 53 53 50 50 48 42 39 38 36 34 35 34 29 26 26 24 22 24 24 20 13 9
41 39 36 35 34 33 31 30 29 27 26 25 24 22 21 20 19 17 16 14 12 11 9 8 7 7 6 6 6 6 7 8 9 10 12 14 15 17 18 19 20 22 23 24 26 29 30 31 33 35 36 38 40 41 42 45 44 40 40 43 44 43 47 53 54 53 52 49 43 41 40 38 37 37 35 31 29 29 26 23 24 23 19 12 7
39 38 36 35 34 33 32 30 29 27 26 25 24 23 22 20 18 17 15 13 11 10 9 7 6 6 5 5 5 5 6 7 8 10 12 14 15 17 19 20 21 22 23 24 25 27 29 31 32 34 35 38 40 41 42 44 42 39 41 45 45 42 45 51 55 55 53 50 45 43 42 40 39 38 37 35 34 32 29 26 25 22 19 13 7
37 36 35 34 32 31 30 28 26 26 25 25 24 23 22 20 18 16 15 13 11 10 8 7 6 4 4 4 4 4 5 7 9 10 12 14 15 17 19 20 21 22 24 24 25 26 28 30 32 33 35 37 39 41 42 42 40 39 41 45 45 41 41 47 53 55 53 50 46 44 43 41 39 39 38 38 36 34 32 29 26 21 18 16 12
Wind_Direction
193 193 193 194 194 193 195 197 199 201 203 207 209 212 217 221 227 233 235 239 242 244 248 254 259 261 263 265 265 265 267 269 269 268 271 272 272 273 274 274 274 274 274 273 270 269 270 271 272 273 274 273 272 272 272 269 265 263 263 263 263 263 263 262 264 270 268 266 269 274 277 280 281 279 278 278 279 280 279 276 275 273 269 269 268
193 194 192 193 193 192 194 196 197 199 201 204 207 210 214 219 225 230 232 236 240 242 247 253 254 254 258 260 260 261 264 266 268 268 269 272 273 273 274 275 276 275 274 274 272 271 271 272 274 276 276 275 273 274 273 270 268 267 267 266 265 264 263 264 266 269 271 269 270 274 277 278 280 280 280 280 280 278 276 274 274 272 269 270 270
193 192 191 192 191 191 192 194 195 197 199 201 204 207 211 216 221 226 230 234 238 243 247 246 245 249 254 255 257 260 262 263 266 267 269 271 272 273 274 274 274 274 274 274 274 274 273 274 275 278 278 277 276 275 273 271 271 272 271 268 266 264 263 265 267 267 270 272 273 276 279 281 280 279 279 280 280 276 273 272 270 268 268 270 269
192 191 191 190 188 189 191 191 192 194 196 199 202 205 208 213 218 223 228 232 236 241 243 241 243 250 253 254 257 261 262 265 267 268 269 270 272 274 275 273 271 272 273 273 275 275 274 275 276 279 279 278 278 276 273 272 273 272 272 269 267 266 267 267 266 265 268 272 275 276 282 283 278 277 279 280 280 275 272 272 269 268 268 265 263
190 189 189 187 186 188 189 189 191 192 194 198 201 202 205 211 217 222 226 230 234 237 240 243 248 251 252 253 256 260 266 270 270 270 270 271 272 273 274 274 272 272 273 273 275 275 274 275 277 279 279 278 277 276 274 273 273 273 272 270 268 268 269 268 267 267 268 271 276 278 280 279 276 277 279 278 278 277 273 270 268 267 266 263 262
189 188 188 185 184 185 186 187 190 191 192 195 197 201 205 209 215 221 225 228 232 237 242 248 252 253 254 257 261 266 273 274 271 273 274 273 273 272 273 275 274 274 275 275 277 276 276 278 279 279 277 275 274 273 273 272 272 272 270 269 269 268 269 268 267 268 268 269 274 277 276 275 276 278 278 276 278 279 277 275 272 268 265 263 264
187 185 184 183 182 182 184 186 187 188 190 191 194 200 204 208 212 218 223 228 234 242 247 252 255 256 259 264 269 273 276 274 274 276 276 274 273 272 275 278 278 279 279 279 279 279 277 278 277 274 272 270 269 269 269 268 268 270 268 267 268 267 266 267 266 265 266 267 270 272 274 275 275 278 279 278 278 275 272 273 274 273 270 265 264
182 180 180 179 180 181 183 184 185 186 187 189 193 198 203 208 212 218 225 232 239 245 249 254 257 259 264 270 276 279 275 273 275 276 274 273 274 276 279 282 282 282 282 281 281 279 278 276 274 271 268 267 267 266 265 264 264 266 266 265 266 266 266 266 266 265 264 266 267 268 271 274 274 279 282 279 277 273 268 262 260 266 268 265 265
178 178 177 175 177 179 180 180 181 183 185 188 192 197 201 207 212 219 226 233 239 245 250 255 258 261 268 274 278 278 272 272 277 276 272 274 278 282 285 284 284 284 284 283 281 279 278 276 274 271 269 270 271 271 270 268 265 264 263 262 261 262 263 262 261 262 262 263 265 265 266 269 271 277 281 278 277 280 280 276 271 271 270 267 263
178 178 176 174 176 177 177 178 179 182 185 188 192 197 201 206 212 218 224 231 239 247 252 254 257 262 268 272 273 271 270 277 281 274 271 279 284 288 290 287 286 285 284 285 284 283 282 280 278 277 277 277 277 276 275 273 270 268 267 265 262 259 259 258 253 252 254 254 255 258 259 263 266 270 275 275 276 280 282 285 286 285 280 270 261
180 179 176 174 175 174 175 176 178 181 185 188 192 196 200 205 211 216 222 230 239 246 250 253 256 258 261 265 273 275 276 282 283 276 276 284 288 291 292 291 290 288 286 287 287 288 289 286 284 284 284 282 281 280 279 277 275 273 271 269 267 263 261 259 255 251 251 251 253 253 255 261 265 270 274 275 277 278 279 281 282 283 281 269 260
180 178 175 173 173 173 175 175 177 181 185 188 192 196 199 203 208 214 220 227 236 242 244 246 247 250 256 266 275 281 285 289 285 279 283 290 293 295 294 293 292 291 289 289 289 290 291 289 288 287 286 285 283 283 282 279 277 276 274 272 271 269 265 263 261 259 257 260 260 256 256 261 264 268 272 274 277 280 281 281 280 281 282 277 271
177 174 173 173 172 173 175 176 177 181 185 189 192 194 198 201 206 212 217 224 231 235 239 240 242 248 257 268 272 280 292 298 290 283 290 296 298 298 296 294 293 291 290 289 289 289 288 288 289 289 288 288 286 284 282 281 281 279 277 276 275 273 271 267 266 265 264 265 266 263 262 264 266 268 270 272 274 276 280 282 281 282 284 282 283
174 172 171 172 173 173 175 176 177 180 184 188 190 193 197 199 204 209 213 219 226 230 237 241 244 255 265 272 274 281 296 305 297 290 297 302 303 304 300 296 292 289 288 287 287 289 289 288 287 288 288 287 284 283 282 281 281 279 278 277 275 274 274 271 269 268 266 265 265 266 267 266 267 270 270 268 268 269 272 275 278 280 283 285 290
172 171 170 171 172 173 174 175 177 180 183 186 188 191 194 197 201 205 210 218 225 230 236 239 248 265 280 284 283 289 303 310 301 296 302 306 309 309 305 298 292 288 287 286 283 285 290 290 285 284 287 285 282 282 282 281 280 278 276 274 272 272 271 271 271 269 265 264 262 262 265 263 262 264 265 264 264 264 265 267 270 274 276 281 285
171 171 170 172 173 174 175 175 176 179 181 183 185 189 192 195 198 201 206 215 223 229 235 241 256 277 291 294 290 294 309 317 307 301 308 312 314 313 307 301 296 292 291 289 286 283 284 287 284 281 283 284 283 285 286 284 281 278 276 274 272 272 271 271 273 271 269 268 264 262 264 262 259 258 258 259 260 262 265 267 267 266 268 272 274
172 172 171 173 174 175 176 176 176 178 179 181 184 186 190 193 195 198 207 214 219 228 239 250 272 293 296 299 295 295 310 323 316 309 314 318 318 316 309 304 302 298 296 295 293 288 283 286 290 288 287 288 288 290 291 290 287 281 276 272 270 269 269 268 268 267 267 268 267 266 266 265 262 260 257 258 260 260 261 264 264 263 263 265 264
174 173 173 174 175 176 178 178 177 177 178 180 182 183 186 190 193 199 210 216 220 230 243 257 285 302 301 304 299 291 306 322 318 311 317 321 320 317 312 309 305 302 300 299 298 296 292 294 300 299 295 294 294 295 297 297 296 290 283 278 273 269 267 266 265 264 266 269 271 272 272 270 270 268 264 263 263 259 254 254 258 261 260 260 260
175 173 173 174 175 176 177 178 178 177 178 179 180 180 183 186 190 199 210 217 225 235 242 257 291 309 312 314 304 287 298 314 315 314 320 321 320 318 314 311 306 303 304 304 303 302 301 302 304 301 298 297 298 298 299 299 298 294 289 285 280 276 275 273 270 268 269 270 271 271 271 270 270 269 265 263 262 258 252 250 254 255 255 259 256
172 171 171 172 173 174 175 176 177 177 177 177 177 179 180 181 186 197 207 213 224 235 239 257 299 320 323 314 304 294 299 310 314 318 321 321 322 321 317 312 309 308 309 309 307 307 307 306 306 303 302 302 301 301 301 299 297 294 289 283 276 275 275 273 270 270 269 268 268 269 270 270 267 265 262 261 259 256 251 249 248 247 249 254 252
168 168 169 169 170 172 173 176 177 177 178 177 176 177 177 180 187 193 198 206 219 232 242 262 301 321 318 301 298 306 311 314 315 318 321 321 322 322 319 315 313 311 310 310 309 309 309 308 307 306 305 304 304 305 304 302 301 298 293 286 281 279 275 269 266 268 268 267 268 269 268 268 265 262 260 258 256 253 252 251 249 244 242 245 246
166 165 165 166 167 169 171 175 176 176 178 177 176 177 178 182 189 192 193 203 219 229 231 238 265 298 308 297 300 314 319 320 319 319 320 321 322 322 320 316 315 314 312 311 310 309 308 307 307 306 306 307 307 307 306 306 305 302 297 293 292 290 284 271 262 261 262 262 264 266 265 265 262 259 256 255 253 251 251 254 253 245 239 239 241
164 163 163 164 166 169 171 174 175 176 177 177 176 177 180 184 189 190 189 196 211 214 200 204 251 306 314 309 315 324 324 324 323 321 321 322 323 323 321 317 317 317 314 310 310 309 308 307 306 307 309 310 310 309 309 310 309 306 302 301 303 304 299 282 263 257 257 259 261 262 263 264 262 258 255 254 256 255 253 254 254 247 240 239 240
163 162 163 163 166 169 170 173 174 174 175 176 176 177 180 183 187 187 183 188 203 206 196 188 53 352 323 321 327 329 327 326 323 322 324 325 325 325 322 320 320 319 316 312 308 307 307 308 309 311 312 312 312 312 312 312 311 309 308 309 311 314 311 295 273 261 258 259 260 261 262 262 261 257 254 254 257 259 258 257 257 251 246 245 245
162 161 162 162 164 166 166 169 171 172 174 176 177 179 180 179 180 181 180 186 199 200 182 137 81 10 330 328 330 330 329 328 325 325 327 327 326 325 324 323 323 322 319 315 310 308 310 311 312 313 313 314 316 315 313 313 312 313 314 314 314 315 315 307 293 278 268 262 260 260 261 261 259 255 251 251 254 257 257 257 258 256 252 250 250
160 160 160 161 163 163 162 164 167 170 174 176 176 178 178 176 175 178 180 185 192 190 165 120 92 20 335 328 329 331 331 330 328 329 330 329 327 327 326 326 326 325 322 317 314 315 315 315 314 315 315 317 319 318 316 315 315 316 316 316 314 312 311 310 306 300 293 284 274 267 261 259 259 256 250 245 245 248 250 249 252 253 249 247 248
159 158 159 159 161 161 161 162 165 169 173 175 175 176 176 174 172 175 180 183 185 177 150 116 99 30 332 327 331 332 329 330 332 333 333 332 329 328 328 329 330 330 325 322 323 323 320 318 318 319 318 319 320 319 318 316 316 317 316 316 315 311 307 305 302 299 297 294 292 287 276 265 259 254 248 243 240 241 243 242 243 246 245 243 245
158 158 159 159 159 161 162 163 165 169 172 174 174 175 174 172 172 179 181 179 178 166 138 115 112 77 333 327 330 331 328 332 336 335 334 334 332 331 332 334 335 334 330 330 331 329 324 323 325 326 325 324 323 322 321 319 318 318 318 318 316 312 309 306 302 298 296 295 297 300 298 286 269 254 245 243 242 242 242 239 239 244 245 243 244
157 156 158 159 159 160 162 164 166 169 171 170 171 175 175 172 173 177 176 171 166 152 132 121 123 113 344 329 329 329 327 331 335 336 336 335 335 335 336 338 338 334 332 335 336 334 333 334 334 335 334 331 327 325 324 322 320 319 321 322 321 318 314 312 308 304 303 302 301 302 304 302 291 269 250 242 243 244 243 239 239 243 243 241 242
155 156 158 159 159 160 161 163 166 169 170 169 169 173 173 170 170 171 170 169 160 137 122 116 114 109 82 356 341 329 326 331 336 339 339 339 339 340 341 342 340 336 337 341 340 338 338 337 336 337 335 331 329 328 325 322 321 321 321 323 325 325 321 316 312 309 308 306 303 300 299 301 303 293 272 252 244 242 241 240 239 240 239 238 239
154 157 159 159 160 161 162 162 164 166 167 168 167 166 166 169 175 176 171 166 153 128 112 105 95 90 88 47 9 347 341 343 344 345 345 345 346 346 345 345 344 342 344 346 344 341 340 336 334 335 333 329 328 327 324 322 322 323 322 320 323 326 325 320 316 313 310 306 302 300 300 298 301 304 297 282 264 248 241 240 238 237 238 237 235
155 156 159 161 162 163 163 162 162 162 162 164 164 162 162 166 173 177 172 160 144 123 103 93 85 81 79 58 32 15 3 357 354 352 352 351 352 352 351 350 350 349 349 349 344 340 341 338 332 330 328 326 325 323 322 321 321 321 320 319 321 324 323 321 319 315 311 309 306 304 303 300 300 302 301 297 288 267 248 239 237 236 238 236 234
157 158 160 162 163 163 163 161 161 162 162 162 163 165 167 166 167 168 164 152 141 126 102 90 88 82 72 54 37 26 15 7 2 0 359 359 359 358 357 356 355 355 356 355 345 338 338 335 330 326 324 323 321 320 319 318 317 319 319 316 316 319 320 320 318 315 314 314 313 310 307 303 302 300 297 296 294 284 265 246 235 233 236 235 232
162 163 164 163 162 162 162 161 161 161 161 162 164 168 172 171 166 162 157 150 148 138 112 100 99 90 75 55 37 27 19 13 9 7 6 5 3 3 4 5 4 3 2 359 349 339 335 331 326 324 321 318 317 317 317 316 317 320 319 313 312 317 320 319 316 316 318 318 316 313 310 305 301 299 296 295 295 292 283 264 242 231 230 233 233
163 162 163 163 161 161 162 161 160 159 159 160 163 164 165 163 159 156 153 148 148 143 122 108 102 94 83 61 39 26 18 15 13 11 10 8 5 7 12 11 5 359 358 354 347 339 332 325 321 319 318 316 315 316 316 315 317 319 317 312 312 318 321 318 316 319 321 319 315 313 311 307 301 295 291 289 288 288 288 279 263 246 232 229 236
157 155 157 160 160 159 160 159 159 158 158 159 160 159 156 152 149 146 141 134 131 127 116 105 100 98 91 68 50 39 25 18 15 13 12 10 10 14 17 10 355 347 346 347 344 337 329 324 321 318 316 315 314 316 315 313 314 319 319 315 316 321 322 319 320 324 323 318 315 313 310 305 299 293 289 285 280 278 279 280 275 263 244 230 230
155 153 155 159 159 158 158 158 157 158 158 157 156 155 152 148 143 138 130 123 118 114 107 97 89 86 71 49 47 47 29 17 16 17 16 16 16 17 16 5 351 344 340 339 338 333 328 328 327 322 321 321 318 316 317 315 312 317 320 318 319 325 327 323 323 325 323 318 316 313 308 304 298 293 289 284 279 277 275 276 278 271 254 239 230
156 156 157 158 158 156 155 154 154 156 155 154 155 154 150 146 142 136 130 125 121 117 113 100 85 74 48 27 29 30 18 11 11 13 14 14 14 12 8 359 353 347 340 339 340 336 331 332 332 330 332 333 327 319 318 317 314 317 322 318 316 324 329 327 326 328 325 320 318 314 309 305 299 294 289 282 278 278 275 274 276 271 257 243 231
152 152 155 156 155 155 154 153 153 154 153 153 155 154 150 146 142 139 136 132 129 128 123 107 88 77 55 32 24 16 9 8 9 8 8 9 8 6 2 356 351 347 342 342 343 339 334 333 334 333 334 336 333 326 322 320 316 318 320 316 314 325 331 330 330 331 328 323 320 316 312 307 302 298 292 283 278 276 273 271 271 269 262 245 229
149 150 154 155 154 154 155 154 154 154 154 155 156 153 151 150 148 145 142 140 139 139 133 120 107 104 89 52 25 6 0 6 9 6 3 3 3 2 359 354 349 347 344 342 342 340 335 333 333 333 334 337 339 336 333 330 326 324 321 315 318 330 334 331 331 332 329 325 323 320 316 313 308 303 296 287 281 278 274 272 272 271 266 251 232
151 151 154 155 154 154 155 155 156 157 157 158 157 154 153 153 151 148 146 145 144 141 134 127 124 122 106 65 23 2 3 14 15 10 6 2 359 357 356 353 349 347 345 342 342 341 337 334 333 332 334 338 340 340 339 338 336 334 327 320 322 332 335 333 335 335 332 329 327 323 319 317 313 306 299 292 287 282 277 273 272 271 267 252 233
152 151 153 154 156 157 156 155 157 158 158 157 155 154 154 154 152 149 148 146 143 138 132 129 127 123 115 98 60 32 31 31 25 17 10 4 359 356 356 355 352 350 347 345 344 341 337 335 334 334 334 336 339 340 339 338 338 336 330 323 326 335 338 336 336 336 335 332 330 326 322 319 314 305 298 294 288 283 278 274 270 270 269 253 229
154 154 155 156 158 158 156 154 155 156 156 156 155 155 156 155 152 150 148 146 141 136 132 130 128 122 113 106 92 65 46 38 30 19 11 5 0 357 356 355 355 354 353 352 350 346 340 336 336 336 336 337 339 339 339 338 338 336 332 327 331 339 341 339 338 338 337 334 331 327 325 322 315 305 297 291 286 282 279 276 274 275 274 255 224
153 153 154 155 156 156 156 156 155 155 155 155 154 154 156 156 152 150 148 145 140 137 133 129 124 116 105 94 80 62 48 39 29 19 11 5 1 358 356 356 357 357 357 357 356 353 347 342 339 338 340 343 345 346 345 344 343 340 335 331 335 341 343 342 341 339 337 334 330 326 325 323 317 309 302 298 296 294 289 286 287 286 279 257 222
152 153 153 152 153 154 155 155 155 154 153 152 152 154 157 156 153 151 149 144 140 136 131 125 118 108 95 82 68 56 46 35 25 18 11 4 360 357 357 357 358 358 358 359 359 356 353 349 345 342 343 345 347 347 347 348 349 346 341 337 339 343 344 344 341 339 338 336 332 327 326 323 319 315 314 311 309 306 302 297 295 293 284 260 221
154 154 153 153 153 153 153 154 154 153 152 152 154 155 157 156 154 152 149 145 141 137 130 123 114 102 89 76 62 50 42 32 22 15 9 4 0 358 357 355 356 357 358 359 359 358 356 354 350 348 347 346 346 346 346 348 351 350 347 343 343 346 347 347 344 342 341 340 336 331 329 325 321 321 322 320 317 314 310 304 298 293 282 259 226
153 153 154 154 153 152 152 154 155 154 154 156 156 156 156 156 155 152 149 146 142 137 129 121 111 98 86 74 60 46 36 27 18 12 8 4 1 359 356 354 353 354 356 359 360 359 358 357 356 353 350 349 347 347 347 349 351 350 347 346 347 349 351 350 349 347 345 343 340 337 335 331 328 327 327 326 325 323 319 313 308 300 285 262 232
153 154 154 155 153 152 153 155 156 155 156 158 158 157 157 156 154 151 148 145 142 137 129 120 110 97 83 71 57 43 33 24 16 9 6 4 1 358 356 353 351 351 352 355 359 360 359 359 358 356 354 352 350 348 349 351 351 349 347 346 348 351 353 353 352 351 350 347 345 343 342 340 337 335 333 330 330 329 323 317 313 306 293 270 236
155 155 155 155 155 155 156 157 157 157 158 158 159 159 158 157 153 150 147 144 141 136 128 118 108 97 83 70 58 42 30 20 12 8 6 3 1 358 356 353 352 351 350 352 356 358 359 359 359 358 357 355 352 351 352 354 353 350 347 347 348 351 354 355 356 355 354 352 349 348 348 346 344 343 341 340 338 335 329 320 314 311 305 291 252
157 157 157 158 159 159 160 160 159 159 160 160 160 161 160 156 152 149 149 147 143 136 128 121 112 98 83 71 54 35 23 14 8 7 6 3 360 357 355 353 353 351 350 350 353 355 357 359 359 359 358 357 355 355 356 356 354 349 346 346 348 352 355 357 358 358 358 356 354 352 352 351 350 350 351 351 349 344 337 326 320 318 318 317 301
157 158 159 159 160 161 161 160 159 160 162 163 163 161 159 155 152 153 155 152 146 139 133 127 119 106 89 70 47 26 15 8 5 5 5 2 359 356 354 353 353 351 350 350 350 352 355 358 358 358 358 358 357 357 359 358 355 350 345 345 349 354 357 357 359 0 0 359 358 357 356 355 354 354 355 355 352 348 342 334 326 324 329 335 337